Вернуться в каталог

PACE

АктивенНаукаSSO
NORAD 58928·PAYLOAD·🇺🇸 United States

Запущен Feb 8, 2024 с Cape Canaveral Space Force Station

Loading…

Ближайшие Пролёты (ближайшие 24 часа)

TLE

СвежийSource: Space-Track

Эпоха: Sep 14, 2026, 07:01 UTC

1 58928U 24025A   26257.29248520  .00000278  00000-0  60022-4 0  9990
2 58928  98.0960 187.2941 0002006  16.2060 343.9208 14.65605724138989

Отслеживайте PACE в реальном времени с AllMySat

Download on the App Store